Location: Bottens
(46.6171°N, 6.6605°E)
Time: 14:31:10
(UTC+00:00)

ATLAS 5 CENTAUR R/B - Pass Details

Date: 03 November 2021
Orbit: 497 x 1159 km, 63.4° (Epoch: 25 November)

Event Time Altitude Azimuth Distance (km) Brightness Sun altitude
Rises 19:51:43 0° 323° (NW) 3,052 5.8 -37.3°
Reaches altitude 10° 19:54:20 10° 338° (NNW) 2,244 4.8 -37.7°
Enters shadow 19:54:42 12° 341° (NNW) 2,150 4.6 -37.8°
